Grigor Bayramyan

Chief Scout - Ararat
3 Dec 2028
Sunday
Process

Personality

Adaptability (8) Ambition (11) Controversy (15) Loyalty (8) Pressure (11) Professionalism (13) Sportsmanship (2) Temperament (1)

Profile

Coaching Style Democratic
License Continental B
Determination 5
Man Management 6
Motivating 10
Discipline 8
Job Satisfaction
100%
Fatigue
0%
Role Chief Scout
Wage 32.3K p/w
Contract 14.03.2030

Performance

Behaviour Good
Training Effectiveness
44%
Player Development
15%
Injury Prevention
30%
Tactical Implementation
45%

Recent Events

Attended a recruitment meeting 7d ago
Attended a recruitment meeting 14d ago
Attended a recruitment meeting 21d ago
Attended a recruitment meeting 28d ago
Attended a recruitment meeting 35d ago
Attended a recruitment meeting 42d ago
Attended a recruitment meeting 49d ago
Attended a recruitment meeting 56d ago

Currently Monitoring

119
Player Club Status Ability Confidence Watched Last Observed Latest Vote
Alejandro Rincon Llaneros Active 112 / 101 40% 3 29.12.2027 -
Lucas Cano All Boys Active 103 / 98 40% 4 28.12.2027 -
Santiago Rodríguez Gimnasia y Esgrima Active 111 / 118 40% 3 28.12.2027 -
Rodrigo Pollero Deportivo Tachira Active 107 / 119 40% 3 26.12.2027 -
Lisandro Cabrera Maipú Active 120 / 102 40% 2 26.12.2027 -
Dato Mchedlidze Tskhinvali Active 90 / 101 40% 1 25.12.2027 -
Tobías Cervera Gimnasia y Esgrima Active 102 / 113 40% 1 25.12.2027 -
Daniel Barrea Godoy Cruz Active 116 / 135 40% 4 24.12.2027 -
Santiago Sala Güemes Active 124 / 105 40% 3 24.12.2027 -
Octavio Bianchi Gimnasia y Esgrima Active 121 / 119 40% 1 23.12.2027 -
Agustín Gallo Tristán Suárez Active 120 / 110 40% 3 17.12.2027 -
Sagir Arce Saburtalo Active 94 / 109 40% 4 11.12.2027 -
Gianluca Pugliese Güemes Active 119 / 105 40% 4 11.12.2027 -
Sebastián Marfort Racing Active 89 / 114 40% 1 06.12.2027 -
Lautaro Gordillo Colegiales Active 115 / 123 40% 3 05.12.2027 -
Renzo Reynaga Patronato Active 109 / 98 40% 2 05.12.2027 -
Ronaldo Peña Deportivo Lara Active 112 / 93 40% 4 03.12.2027 -
Franco Ayunta Temperley Active 117 / 111 40% 4 03.12.2027 -
José Balza Deportivo Tachira Active 105 / 106 40% 2 02.12.2027 -
Jeriel De Santis Caracas Active 104 / 114 40% 2 01.12.2027 -
Elías Peralta Lokomotivi Active 100 / 94 40% 1 01.12.2027 -
Jhonatan Candia Barracas Central Active 111 / 110 40% 2 30.11.2027 -
Genaro Rossi San Martín SJ Active 115 / 105 40% 2 30.11.2027 -
Juan David Rueda Alianza Petrolera Active 129 / 99 40% 2 27.11.2027 -
Rafael Moreno Atletico Venezuela Active 123 / 128 40% 2 26.11.2027 -
Rodrigo Mosqueira Stjarnan Active 112 / 102 40% 2 26.11.2027 -
Richard Figueroa Deportivo Lara Active 127 / 93 40% 1 25.11.2027 -
Álex Arce Independiente Rivadavia Active 125 / 139 40% 1 23.11.2027 -
Mauricio Márquez Caracas Active 120 / 101 40% 7 20.11.2027 -
Ronny Maza Aragua Active 113 / 103 40% 1 20.11.2027 -
José Barreto Quilmes Active 135 / 118 40% 2 19.11.2027 -
Lorenzo Barrera Agropecuario Argentino Active 86 / 94 40% 2 19.11.2027 -
Sergio González Racing Active 134 / 110 40% 2 17.11.2027 -
Favio Cabral Mitre Active 111 / 108 40% 1 17.11.2027 -
Agustín Lavezzi Quilmes Active 90 / 103 40% 1 15.11.2027 -
Salomon Ramirez Atletico Venezuela Active 92 / 107 40% 1 12.11.2027 -
Gustavo Viera Cerro Largo Active 97 / 115 40% 1 06.11.2027 -
Enzo González Defensores Active 99 / 111 40% 2 05.11.2027 -
Sebastián Cocimano Nueva Chicago Active 104 / 117 40% 3 05.11.2027 -
Tornike Mikautadze Tskhinvali Active 112 / 105 40% 1 28.10.2027 -
Matías Samaniego Talleres Active 102 / 85 40% 2 27.10.2027 -
César Magallan Estudiantes de Merida Active 114 / 120 40% 4 22.10.2027 -
Kekuta Manneh Samtredia Active 104 / 83 40% 1 22.10.2027 -
Nicolás Heiz Maipú Active 103 / 96 40% 2 21.10.2027 -
Rafael Arace Caracas Active 127 / 118 40% 2 07.10.2027 -
Alan Bonansea Colón Active 94 / 102 40% 2 06.10.2027 -
Junior Paredes Trujillanos Active 95 / 93 40% 1 06.10.2027 -
Juan Mendoza Güemes Active 86 / 115 40% 1 24.09.2027 -
Adalberto Peñaranda Deportivo Tachira Active 139 / 99 40% 2 17.09.2027 -
Rodrigo Bogarín Barracas Central Active 129 / 125 40% 1 11.09.2027 -
Camilo Machado Madryn Active 115 / 101 40% 1 08.09.2027 -
Tomás Bolzicco Chaco For Ever Active 81 / 112 40% 1 08.09.2027 -
Rui Costa Port Vale Active 104 / 122 40% 1 09.08.2027 -
Lorenzo De Leo Renate Active 92 / 90 40% 1 26.07.2027 -
Giuseppe Panico Foggia Active 140 / 111 40% 2 19.07.2027 -
Augusto Berrondo Tristán Suárez Active 125 / 97 40% 1 19.07.2027 -
Andrew Dallas Sambenedettese Active 83 / 103 40% 1 12.07.2027 -
Patrick Schmidt Tarxien Rainbows Active 88 / 102 40% 3 22.06.2027 -
Ruslan Apekov Torpedo Moscow Active 87 / 104 40% 1 01.06.2027 -
Mikhail Ignatov Sochi Active 136 / 123 40% 1 29.05.2027 -
Thom van Bergen Groningen Active 108 / 119 40% 1 28.05.2027 -
Damir Céter Hamrun Spartans Active 105 / 115 40% 2 26.05.2027 -
Martin Sekulić Ural Active 132 / 102 40% 2 24.05.2027 -
Mômô Fanyé Touré Alashkert Active 117 / 119 40% 3 22.05.2027 -
Törles Knöll Al-Ta'ee Active 108 / 117 40% 1 22.05.2027 -
Jonathan Cañete Portuguesa Active 137 / 105 40% 1 20.05.2027 -
Yakou Meïté Damac Active 119 / 109 40% 3 17.05.2027 -
Vladislav Sarveli Nizhniy Novgorod Active 129 / 117 40% 2 15.05.2027 -
Kamran Aliev SKA Khabarovsk Active 102 / 96 40% 3 11.05.2027 -
Robert Murić Floriana Active 88 / 86 40% 1 02.05.2027 -
Prince Ibara Al-Njoom Active 101 / 105 40% 1 02.05.2027 -
David Davidyan Rotor Active 81 / 116 40% 1 01.05.2027 -
Ekain Orobengoa Real Sociedad Active 81 / 100 40% 1 30.04.2027 -
Matheus Aiás Noah Active 105 / 125 40% 2 27.04.2027 -
Georgy Gongadze Ufa Active 76 / 113 40% 1 23.04.2027 -
Yeangel Montero Naxxar Lions Active 100 / 93 40% 2 17.04.2027 -
Moussakoye Diallo Stade Malien Active 123 / 104 40% 1 17.04.2027 -
Alexandr Saplinov Volga Active 93 / 99 40% 2 16.04.2027 -
Georgy Melkadze Akhmat Grozny Active 119 / 103 40% 1 15.04.2027 -
Leandro Antunes Al-Riyadh Active 123 / 115 40% 1 08.04.2027 -
Carlos Guerreño Hajer Active 84 / 103 40% 3 07.04.2027 -
Indrit Tuci Olimpija Ljubljana Active 87 / 107 40% 1 07.04.2027 -
Renat Garayev AZAL Active 121 / 100 40% 3 06.04.2027 -
Artem Poliarus Urartu Active 108 / 111 41% 1 25.01.2027 -
Kauan Floriana Active 106 / 106 40% 1 03.01.2027 -
Yilson Mosquera Tarxien Rainbows Active 97 / 93 40% 1 02.01.2027 -
Vyacheslav Grulev Nizhniy Novgorod Active 89 / 125 40% 2 31.12.2026 -
Khetag Khosonov Akron Active 112 / 110 40% 1 31.12.2026 -
François Kamano Sochi Active 99 / 129 40% 1 21.12.2026 -
Karim El Berkaoui Al-Khaleej Active 111 / 134 40% 2 19.12.2026 -
Alexey Kashtanov Torpedo Moscow Active 113 / 119 40% 1 17.12.2026 -
Younes El Bahraoui Al-Taawoun Active 119 / 113 40% 1 16.12.2026 -
Oumar Gonzalez Al-Ra'ed Active 106 / 134 40% 1 15.12.2026 -
Artem Sokol Rodina Active 113 / 98 40% 1 15.12.2026 -
Musa Qurbanlı Qarabag Active 116 / 102 40% 1 11.12.2026 -
Leandro Lacunza Hibernians Active 116 / 82 40% 1 08.12.2026 -
Shahriyar Abdullayev Ravan Active 97 / 110 40% 1 07.12.2026 -
Zoumana Simpara Djoliba Active 87 / 99 40% 1 02.12.2026 -
Yegor Kortsov Dinamo Brest Active 116 / 97 40% 1 28.11.2026 -
David Karaev KAMAZ Active 111 / 92 40% 1 26.11.2026 -
Jáder Valencia Deportes Tolima Active 133 / 102 40% 1 25.11.2026 -
Rüstəm Əhmədzadə Sumgayit Active 103 / 118 40% 1 25.11.2026 -
Ilja Safronov Rotor Active 102 / 96 40% 1 23.11.2026 -
Liam Bennett Cambridge United Active 121 / 107 40% 1 21.11.2026 -
Cavid Nazarov Khazar Active 117 / 116 40% 1 19.11.2026 -
Macaulay Langstaff Millwall Active 107 / 126 40% 2 18.11.2026 -
Gevorg Tarakhchyan Pyunik Active 115 / 89 40% 1 24.09.2026 -
Magnus Lankhof Dahlby Stabaek Active 95 / 87 40% 1 22.09.2026 -
Denzel Jubitana Neftchi Active 127 / 108 40% 1 19.09.2026 -
Egor Bogomolskiy Zira Active 102 / 95 40% 1 18.09.2026 -
Paul Ayongo Ararat-Armenia Active 105 / 119 40% 1 16.09.2026 -
Matty Stevens AFC Wimbledon Active 90 / 122 40% 1 14.09.2026 -
Steven Alfred Torpedo-BelAZ Active 94 / 83 40% 1 14.09.2026 -
Mo Dauda Portimonense Active 109 / 92 40% 1 13.09.2026 -
Will Swan Bradford City Active 78 / 99 40% 1 08.09.2026 -
Valentin Costache Noah Active 111 / 127 40% 1 08.09.2026 -
Jonel Désirè Van Active 79 / 85 41% 1 31.08.2026 -
Allef Van Active 82 / 98 41% 1 10.08.2026 -
Hamlet Mnatsakanyan Shirak Active 92 / 88 41% 1 03.08.2026 -